Time,TemperatureF,DewpointF,PressureIn,WindDirection,WindDirectionDegrees,WindSpeedMPH,WindSpeedGustMPH,Humidity,HourlyPrecipIn,Conditions,Clouds,dailyrainin,SoftwareType,DateUTC
2013-02-20 00:08:00,22.1,13.0,29.84,NNE,12,4.0,-999.0,68,-99.99,,,0.00,weatherlink.com 1.10,2013-02-20 07:08:00,
2013-02-20 00:23:00,22.1,13.0,29.84,NNE,19,3.0,-999.0,69,-99.99,,,0.00,weatherlink.com 1.10,2013-02-20 07:23:00,
2013-02-20 00:38:00,22.2,13.0,29.85,NE,38,2.0,-999.0,69,-99.99,,,0.00,weatherlink.com 1.10,2013-02-20 07:38:00,
2013-02-20 00:53:00,22.3,14.0,29.85,NNE,24,4.0,-999.0,69,-99.99,,,0.00,weatherlink.com 1.10,2013-02-20 07:53:00,
2013-02-20 01:08:00,21.8,13.0,29.84,NNE,16,4.0,-999.0,70,-99.99,,,0.00,weatherlink.com 1.10,2013-02-20 08:08:00,
2013-02-20 01:23:00,21.5,13.0,29.85,NNE,21,3.0,-999.0,70,-99.99,,,0.00,weatherlink.com 1.10,2013-02-20 08:23:00,
2013-02-20 01:38:00,21.5,13.0,29.84,NNE,22,0.0,-999.0,70,-99.99,,,0.00,weatherlink.com 1.10,2013-02-20 08:38:00,
2013-02-20 01:53:00,21.3,13.0,29.84,East,82,0.0,-999.0,70,-99.99,,,0.00,weatherlink.com 1.10,2013-02-20 08:53:00,
2013-02-20 02:08:00,21.1,13.0,29.84,East,82,0.0,-999.0,70,-99.99,,,0.00,weatherlink.com 1.10,2013-02-20 09:08:00,
2013-02-20 02:23:00,21.0,13.0,29.83,East,82,0.0,-999.0,70,-99.99,,,0.00,weatherlink.com 1.10,2013-02-20 09:23:00,
2013-02-20 02:38:00,20.8,13.0,29.84,East,82,0.0,-999.0,71,-99.99,,,0.00,weatherlink.com 1.10,2013-02-20 09:38:00,
2013-02-20 02:53:00,20.8,13.0,29.83,East,82,0.0,-999.0,72,-99.99,,,0.00,weatherlink.com 1.10,2013-02-20 09:53:00,
2013-02-20 03:08:00,20.8,13.0,29.82,East,82,0.0,-999.0,71,-99.99,,,0.00,weatherlink.com 1.10,2013-02-20 10:08:00,
2013-02-20 03:23:00,20.5,12.0,29.81,East,82,0.0,-999.0,71,-99.99,,,0.00,weatherlink.com 1.10,2013-02-20 10:23:00,
2013-02-20 03:38:00,20.5,12.0,29.81,East,82,1.0,-999.0,71,-99.99,,,0.00,weatherlink.com 1.10,2013-02-20 10:38:00,
2013-02-20 03:53:00,20.4,13.0,29.80,SSW,204,3.0,-999.0,72,-99.99,,,0.00,weatherlink.com 1.10,2013-02-20 10:53:00,
2013-02-20 04:08:00,19.5,12.0,29.81,SW,214,4.0,-999.0,72,-99.99,,,0.00,weatherlink.com 1.10,2013-02-20 11:08:00,
2013-02-20 04:23:00,19.0,12.0,29.82,SSW,204,1.0,-999.0,75,-99.99,,,0.00,weatherlink.com 1.10,2013-02-20 11:23:00,
2013-02-20 04:38:00,19.0,13.0,29.82,SW,227,4.0,-999.0,76,-99.99,,,0.00,weatherlink.com 1.10,2013-02-20 11:38:00,
2013-02-20 04:53:00,18.8,13.0,29.82,South,182,3.0,-999.0,77,-99.99,,,0.00,weatherlink.com 1.10,2013-02-20 11:53:00,
2013-02-20 05:08:00,18.5,12.0,29.82,SSW,198,3.0,-999.0,77,-99.99,,,0.00,weatherlink.com 1.10,2013-02-20 12:08:00,
2013-02-20 05:23:00,18.9,13.0,29.81,SSW,200,2.0,-999.0,77,-99.99,,,0.00,weatherlink.com 1.10,2013-02-20 12:23:00,
2013-02-20 05:38:00,18.9,13.0,29.81,SSW,201,2.0,-999.0,77,-99.99,,,0.00,weatherlink.com 1.10,2013-02-20 12:38:00,
2013-02-20 05:53:00,19.2,13.0,29.80,SSW,201,2.0,-999.0,77,-99.99,,,0.00,weatherlink.com 1.10,2013-02-20 12:53:00,
2013-02-20 06:08:00,19.3,12.0,29.80,SSW,201,4.0,-999.0,74,-99.99,,,0.00,weatherlink.com 1.10,2013-02-20 13:08:00,
2013-02-20 06:23:00,18.6,13.0,29.80,SSW,209,3.0,-999.0,77,-99.99,,,0.00,weatherlink.com 1.10,2013-02-20 13:23:00,
2013-02-20 06:38:00,18.8,12.0,29.79,SW,233,3.0,-999.0,75,-99.99,,,0.00,weatherlink.com 1.10,2013-02-20 13:38:00,
2013-02-20 06:53:00,18.5,12.0,29.80,South,178,1.0,-999.0,76,-99.99,,,0.00,weatherlink.com 1.10,2013-02-20 13:53:00,
2013-02-20 07:08:00,18.7,13.0,29.80,South,178,3.0,-999.0,77,-99.99,,,0.00,weatherlink.com 1.10,2013-02-20 14:08:00,
2013-02-20 07:23:00,18.8,13.0,29.80,South,187,1.0,-999.0,78,-99.99,,,0.00,weatherlink.com 1.10,2013-02-20 14:23:00,
2013-02-20 07:38:00,19.3,14.0,29.80,South,187,2.0,-999.0,78,-99.99,,,0.00,weatherlink.com 1.10,2013-02-20 14:38:00,
2013-02-20 07:53:00,19.6,14.0,29.80,South,177,3.0,-999.0,79,-99.99,,,0.00,weatherlink.com 1.10,2013-02-20 14:53:00,
2013-02-20 08:08:00,19.8,14.0,29.80,South,173,3.0,-999.0,79,-99.99,,,0.00,weatherlink.com 1.10,2013-02-20 15:08:00,
2013-02-20 08:23:00,20.3,15.0,29.80,South,179,3.0,-999.0,79,-99.99,,,0.00,weatherlink.com 1.10,2013-02-20 15:23:00,
2013-02-20 08:38:00,21.0,15.0,29.81,South,172,5.0,-999.0,78,-99.99,,,0.00,weatherlink.com 1.10,2013-02-20 15:38:00,
2013-02-20 08:53:00,21.5,15.0,29.81,South,172,6.0,-999.0,77,-99.99,,,0.00,weatherlink.com 1.10,2013-02-20 15:53:00,
2013-02-20 09:08:00,22.0,16.0,29.80,South,174,6.0,-999.0,76,-99.99,,,0.00,weatherlink.com 1.10,2013-02-20 16:08:00,
2013-02-20 09:23:00,22.7,16.0,29.80,SSE,148,3.0,-999.0,74,-99.99,,,0.00,weatherlink.com 1.10,2013-02-20 16:23:00,
2013-02-20 09:38:00,23.6,16.0,29.80,SSE,155,5.0,-999.0,73,-99.99,,,0.00,weatherlink.com 1.10,2013-02-20 16:38:00,
2013-02-20 09:53:00,24.0,16.0,29.80,SSE,155,6.0,-999.0,71,-99.99,,,0.00,weatherlink.com 1.10,2013-02-20 16:53:00,
2013-02-20 10:08:00,25.1,17.0,29.80,SE,143,3.0,-999.0,70,-99.99,,,0.00,weatherlink.com 1.10,2013-02-20 17:08:00,
2013-02-20 10:23:00,25.6,16.0,29.80,South,169,2.0,-999.0,68,-99.99,,,0.00,weatherlink.com 1.10,2013-02-20 17:23:00,
2013-02-20 10:38:00,27.1,17.0,29.80,SE,146,4.0,-999.0,65,-99.99,,,0.00,weatherlink.com 1.10,2013-02-20 17:38:00,
2013-02-20 10:53:00,28.0,17.0,29.80,SE,146,3.0,-999.0,63,-99.99,,,0.00,weatherlink.com 1.10,2013-02-20 17:53:00,
2013-02-20 11:08:00,27.9,16.0,29.79,South,178,0.0,-999.0,62,-99.99,,,0.00,weatherlink.com 1.10,2013-02-20 18:08:00,
2013-02-20 11:23:00,28.7,17.0,29.78,SSW,204,3.0,-999.0,62,-99.99,,,0.00,weatherlink.com 1.10,2013-02-20 18:23:00,
2013-02-20 11:38:00,29.3,17.0,29.77,South,176,0.0,-999.0,60,-99.99,,,0.00,weatherlink.com 1.10,2013-02-20 18:38:00,
2013-02-20 11:53:00,31.3,18.0,29.76,SSE,148,2.0,-999.0,57,-99.99,,,0.00,weatherlink.com 1.10,2013-02-20 18:53:00,
2013-02-20 12:08:00,33.0,17.0,29.76,SE,144,3.0,-999.0,53,-99.99,,,0.00,weatherlink.com 1.10,2013-02-20 19:08:00,
2013-02-20 12:23:00,34.8,17.0,29.75,South,176,2.0,-999.0,48,-99.99,,,0.00,weatherlink.com 1.10,2013-02-20 19:23:00,
2013-02-20 12:38:00,35.3,17.0,29.74,SSE,150,5.0,-999.0,47,-99.99,,,0.00,weatherlink.com 1.10,2013-02-20 19:38:00,
2013-02-20 12:53:00,35.4,16.0,29.73,ESE,109,3.0,-999.0,45,-99.99,,,0.00,weatherlink.com 1.10,2013-02-20 19:53:00,
2013-02-20 13:08:00,35.7,16.0,29.73,East,91,6.0,-999.0,44,-99.99,,,0.00,weatherlink.com 1.10,2013-02-20 20:08:00,
2013-02-20 13:24:00,35.6,16.0,29.72,ENE,74,7.0,-999.0,44,-99.99,,,0.00,weatherlink.com 1.10,2013-02-20 20:24:00,
2013-02-20 13:38:00,35.7,16.0,29.72,ESE,113,9.0,-999.0,44,-99.99,,,0.00,weatherlink.com 1.10,2013-02-20 20:38:00,
2013-02-20 13:53:00,35.8,16.0,29.71,East,98,3.0,-999.0,44,-99.99,,,0.00,weatherlink.com 1.10,2013-02-20 20:53:00,
2013-02-20 14:08:00,35.5,15.0,29.71,NE,55,9.0,-999.0,44,-99.99,,,0.00,weatherlink.com 1.10,2013-02-20 21:08:00,
2013-02-20 14:23:00,34.8,15.0,29.71,NE,49,6.0,-999.0,45,-99.99,,,0.00,weatherlink.com 1.10,2013-02-20 21:23:00,
2013-02-20 14:38:00,34.9,15.0,29.70,North,5,3.0,-999.0,45,-99.99,,,0.00,weatherlink.com 1.10,2013-02-20 21:38:00,
2013-02-20 14:53:00,34.9,15.0,29.70,ENE,69,2.0,-999.0,45,-99.99,,,0.00,weatherlink.com 1.10,2013-02-20 21:53:00,
2013-02-20 15:08:00,35.0,15.0,29.70,East,84,5.0,-999.0,45,-99.99,,,0.00,weatherlink.com 1.10,2013-02-20 22:08:00,
2013-02-20 15:23:00,35.7,17.0,29.71,East,88,3.0,-999.0,46,-99.99,,,0.00,weatherlink.com 1.10,2013-02-20 22:23:00,
2013-02-20 15:38:00,34.8,16.0,29.70,NE,34,10.0,-999.0,47,-99.99,,,0.00,weatherlink.com 1.10,2013-02-20 22:38:00,
2013-02-20 15:53:00,34.3,17.0,29.70,NNE,13,5.0,-999.0,49,-99.99,,,0.00,weatherlink.com 1.10,2013-02-20 22:53:00,
2013-02-20 16:08:00,33.6,22.0,29.70,NE,48,12.0,-999.0,62,-99.99,,,0.00,weatherlink.com 1.10,2013-02-20 23:08:00,
2013-02-20 16:23:00,32.5,24.0,29.71,East,82,7.0,-999.0,70,-99.99,,,0.00,weatherlink.com 1.10,2013-02-20 23:23:00,
2013-02-20 16:38:00,31.2,24.0,29.72,ENE,74,9.0,-999.0,75,-99.99,,,0.00,weatherlink.com 1.10,2013-02-20 23:38:00,
2013-02-20 16:53:00,30.1,25.0,29.72,ENE,60,11.0,-999.0,81,-99.99,,,0.00,weatherlink.com 1.10,2013-02-20 23:53:00,
2013-02-20 17:08:00,27.7,24.0,29.73,NE,50,8.0,-999.0,87,-99.99,,,0.00,weatherlink.com 1.10,2013-02-21 00:08:00,
2013-02-20 17:23:00,26.6,24.0,29.73,NE,34,7.0,-999.0,89,-99.99,,,0.01,weatherlink.com 1.10,2013-02-21 00:23:00,
2013-02-20 17:38:00,26.1,24.0,29.73,NNE,19,6.0,-999.0,90,-99.99,,,0.03,weatherlink.com 1.10,2013-02-21 00:38:00,
2013-02-20 17:53:00,25.6,23.0,29.74,NNE,31,4.0,-999.0,90,-99.99,,,0.03,weatherlink.com 1.10,2013-02-21 00:53:00,
2013-02-20 18:08:00,25.5,23.0,29.74,NNE,18,3.0,-999.0,90,-99.99,,,0.04,weatherlink.com 1.10,2013-02-21 01:08:00,
2013-02-20 18:23:00,25.4,23.0,29.74,North,9,5.0,-999.0,90,-99.99,,,0.05,weatherlink.com 1.10,2013-02-21 01:23:00,
2013-02-20 18:38:00,25.1,23.0,29.75,NNE,18,7.0,-999.0,90,-99.99,,,0.07,weatherlink.com 1.10,2013-02-21 01:38:00,
2013-02-20 18:53:00,24.8,23.0,29.75,NNE,13,4.0,-999.0,91,-99.99,,,0.09,weatherlink.com 1.10,2013-02-21 01:53:00,
2013-02-20 19:08:00,24.5,22.0,29.75,NE,36,6.0,-999.0,91,-99.99,,,0.11,weatherlink.com 1.10,2013-02-21 02:08:00,
2013-02-20 19:23:00,24.2,22.0,29.75,NE,37,5.0,-999.0,91,-99.99,,,0.13,weatherlink.com 1.10,2013-02-21 02:23:00,
2013-02-20 19:38:00,24.0,22.0,29.76,NNE,24,6.0,-999.0,91,-99.99,,,0.14,weatherlink.com 1.10,2013-02-21 02:38:00,
2013-02-20 19:53:00,23.6,21.0,29.75,NNE,24,5.0,-999.0,91,-99.99,,,0.15,weatherlink.com 1.10,2013-02-21 02:53:00,
2013-02-20 20:08:00,23.5,22.0,29.75,NNE,24,5.0,-999.0,92,-99.99,,,0.15,weatherlink.com 1.10,2013-02-21 03:08:00,
2013-02-20 20:23:00,23.3,21.0,29.76,NE,34,6.0,-999.0,91,-99.99,,,0.15,weatherlink.com 1.10,2013-02-21 03:23:00,
2013-02-20 20:38:00,22.7,21.0,29.76,NNE,15,6.0,-999.0,91,-99.99,,,0.16,weatherlink.com 1.10,2013-02-21 03:38:00,
2013-02-20 20:53:00,22.6,20.0,29.76,NNE,26,6.0,-999.0,91,-99.99,,,0.16,weatherlink.com 1.10,2013-02-21 03:53:00,
2013-02-20 21:09:00,22.2,20.0,29.77,NNE,22,6.0,-999.0,91,-99.99,,,0.17,weatherlink.com 1.10,2013-02-21 04:09:00,
2013-02-20 21:24:00,21.2,19.0,29.77,NE,38,6.0,-999.0,90,-99.99,,,0.17,weatherlink.com 1.10,2013-02-21 04:24:00,
2013-02-20 21:38:00,20.4,18.0,29.77,NE,36,6.0,-999.0,90,-99.99,,,0.19,weatherlink.com 1.10,2013-02-21 04:38:00,
2013-02-20 21:53:00,20.4,18.0,29.78,NE,41,7.0,-999.0,91,-99.99,,,0.19,weatherlink.com 1.10,2013-02-21 04:53:00,
2013-02-20 22:08:00,19.8,18.0,29.78,NNE,26,3.0,-999.0,91,-99.99,,,0.20,weatherlink.com 1.10,2013-02-21 05:08:00,
2013-02-20 22:23:00,19.4,17.0,29.78,NE,43,7.0,-999.0,90,-99.99,,,0.20,weatherlink.com 1.10,2013-02-21 05:23:00,
2013-02-20 22:38:00,19.1,17.0,29.78,NE,40,8.0,-999.0,91,-99.99,,,0.20,weatherlink.com 1.10,2013-02-21 05:38:00,
2013-02-20 22:53:00,18.7,17.0,29.78,NNE,30,6.0,-999.0,91,-99.99,,,0.21,weatherlink.com 1.10,2013-02-21 05:53:00,
2013-02-20 23:08:00,18.7,17.0,29.78,NNE,18,3.0,-999.0,91,-99.99,,,0.21,weatherlink.com 1.10,2013-02-21 06:08:00,
2013-02-20 23:23:00,18.8,17.0,29.77,NNE,17,3.0,-999.0,91,-99.99,,,0.21,weatherlink.com 1.10,2013-02-21 06:23:00,
2013-02-20 23:38:00,18.6,16.0,29.78,NE,56,3.0,-999.0,91,-99.99,,,0.21,weatherlink.com 1.10,2013-02-21 06:38:00,
2013-02-20 23:54:00,18.5,16.0,29.78,NNE,29,2.0,-999.0,91,-99.99,,,0.21,weatherlink.com 1.10,2013-02-21 06:54:00,